, FL

(GMT )
Crestview

Weather History for KEGI - February, 2013

Change the Weather History Date:

Friday, February 8, 2013

  Actual Average Record
Temperature  
Mean Temperature 58 °F -  
Max Temperature 68 °F - - ()
Min Temperature 48 °F - - ()
Degree Days  
Heating Degree Days 7    
Growing Degree Days 8 (Base 50)    
Moisture  
Dew Point 53 °F    
Average Humidity 93    
Maximum Humidity 100    
Minimum Humidity 63    
Precipitation  
Precipitation 0.00 in - - ()
Sea Level Pressure  
Sea Level Pressure 30.01 in    
Wind  
Wind Speed 1 mph (NW)    
Max Wind Speed 10 mph    
Max Gust Speed -    
Visibility 4 miles    
Events Fog    
Averages and records for this station are not official NWS values.
T = Trace of Precipitation, MM = Missing Value Source: NWS Daily Summary

Daily Weather History Graph

Daily Weather History Graph

Search for Another Location

Airport or City:

Trip Planner

Search our weather history database for the weather conditions in past years. The results will help you decide how hot, cold, wet, or windy it might be!

Date:

Astronomy

Feb. 08, 2013 Rise Set
Actual Time 6:32 AM CST 5:28 PM CST
Civil Twilight 6:07 AM CST 5:53 PM CST
Nautical Twilight 5:38 AM CST 6:22 PM CST
Astronomical Twilight 5:10 AM CST 6:50 PM CST
Moon 4:57 AM CST (2/8) 4:03 PM CST (2/8)
Length of Visible Light 11h 46m
Length of Day
10h 56m
Waning Crescent, 3% of the Moon is Illuminated
Feb 8
Waning Crescent
Feb 10
New
Feb 17
First Quarter
Feb 25
Full
Mar 4
Last Quarter

Hourly Weather History & Observations

Time (CST) Temp. Dew Point Humidity Pressure Visibility Wind Dir Wind Speed Gust Speed Precip Events Conditions
12:07 AM 55.4 °F 53.6 °F 94% 29.95 in 10.0 mi West 2.3 mph - N/A   Mostly Cloudy
12:32 AM 55.4 °F 55.4 °F 100% 29.95 in 10.0 mi NW 1.2 mph - N/A   Scattered Clouds
12:37 AM 55.4 °F 55.4 °F 100% 29.95 in 10.0 mi Calm Calm - N/A   Mostly Cloudy
12:42 AM 55.4 °F 55.4 °F 100% 29.95 in 9.0 mi Calm Calm - N/A   Scattered Clouds
12:58 AM 55.4 °F 53.6 °F 94% 29.95 in 6.0 mi Calm Calm - N/A   Mostly Cloudy
1:08 AM 53.6 °F 53.6 °F 100% 29.95 in 6.0 mi Calm Calm - N/A   Mostly Cloudy
1:13 AM 53.6 °F 53.6 °F 100% 29.95 in 2.0 mi Calm Calm - N/A   Mostly Cloudy
1:18 AM 53.6 °F 53.6 °F 100% 29.95 in 2.0 mi Calm Calm - N/A   Overcast
1:23 AM 53.6 °F 53.6 °F 100% 29.95 in 7.0 mi Calm Calm - N/A   Overcast
1:48 AM 53.6 °F 53.6 °F 100% 29.95 in 9.0 mi Calm Calm - N/A   Scattered Clouds
1:58 AM 51.8 °F 51.8 °F 100% 29.94 in 1.8 mi Calm Calm - N/A   Partly Cloudy
2:03 AM 51.8 °F 51.8 °F 100% 29.94 in 0.8 mi Calm Calm - N/A   Mist
2:13 AM 51.8 °F 51.8 °F 100% 29.95 in 0.8 mi Calm Calm - N/A   Mist
2:18 AM 51.8 °F 51.8 °F 100% 29.95 in 0.5 mi NNW 1.2 mph - N/A Fog Fog
2:23 AM 51.8 °F 51.8 °F 100% 29.95 in 0.8 mi Calm Calm - N/A   Mist
2:28 AM 51.8 °F 51.8 °F 100% 29.95 in 4.0 mi Calm Calm - N/A   Mostly Cloudy
2:38 AM 51.8 °F 51.8 °F 100% 29.95 in 2.0 mi Calm Calm - N/A   Mostly Cloudy
2:43 AM 51.8 °F 51.8 °F 100% 29.95 in 1.5 mi Calm Calm - N/A   Mostly Cloudy
2:53 AM 51.8 °F 51.8 °F 100% 29.95 in 1.8 mi Calm Calm - N/A   Mostly Cloudy
2:58 AM 51.8 °F 51.8 °F 100% 29.95 in 1.2 mi Calm Calm - N/A   Mostly Cloudy
3:02 AM 51.8 °F 51.8 °F 100% 29.95 in 0.5 mi Calm Calm - N/A Fog Fog
3:14 AM 51.8 °F 51.8 °F 100% 29.96 in 0.5 mi Calm Calm - N/A Fog Fog
3:20 AM 51.8 °F 51.8 °F 100% 29.96 in 0.8 mi Calm Calm - N/A   Mostly Cloudy
3:39 AM 51.8 °F 51.8 °F 100% 29.96 in 0.5 mi Calm Calm - N/A Fog Fog
3:49 AM 51.8 °F 51.8 °F 100% 29.96 in 0.2 mi Calm Calm - N/A Fog Fog
3:58 AM 52.7 °F 52.3 °F 99% 29.96 in 0.2 mi Calm Calm - N/A Fog Fog
4:03 AM 53.6 °F 51.8 °F 94% 29.96 in 0.5 mi Calm Calm - N/A Fog Fog
4:13 AM 51.8 °F 51.8 °F 100% 29.97 in 0.2 mi Calm Calm - N/A Fog Fog
4:38 AM 51.8 °F 51.8 °F 100% 29.97 in 0.5 mi Calm Calm - N/A Fog Fog
4:43 AM 51.8 °F 51.8 °F 100% 29.97 in 0.5 mi Calm Calm - N/A Fog Fog
4:53 AM 51.8 °F 51.8 °F 100% 29.97 in 0.8 mi Calm Calm - N/A   Clear
4:58 AM 51.8 °F 51.8 °F 100% 29.97 in 1.0 mi Calm Calm - N/A   Clear
5:03 AM 50.0 °F 50.0 °F 100% 29.98 in 0.2 mi Calm Calm - N/A Fog Fog
5:13 AM 50.0 °F 50.0 °F 100% 29.98 in 0.5 mi NW 2.3 mph - N/A Fog Fog
5:23 AM 50.0 °F 50.0 °F 100% 29.99 in 0.5 mi Calm Calm - N/A Fog Fog
5:38 AM 50.0 °F 48.2 °F 94% 29.99 in 0.2 mi Calm Calm - N/A Fog Fog
5:43 AM 50.0 °F 50.0 °F 100% 30.00 in 0.5 mi West 1.2 mph - N/A Fog Fog
5:58 AM 49.6 °F 49.3 °F 99% 30.00 in 0.5 mi WNW 2.3 mph - N/A Fog Fog
6:03 AM 50.0 °F 50.0 °F 100% 30.01 in 0.2 mi West 2.3 mph - N/A Fog Fog
6:04 AM 50.0 °F 50.0 °F 100% 30.01 in 0.2 mi West 2.3 mph - N/A Fog Fog
6:37 AM 48.2 °F 48.2 °F 100% 30.02 in 0.2 mi Calm Calm - N/A Fog Fog
6:58 AM 48.9 °F 48.7 °F 99% 30.02 in 0.2 mi Calm Calm - N/A Fog Fog
7:03 AM 50.0 °F 50.0 °F 100% 30.02 in 0.5 mi Calm Calm - N/A Fog Fog
7:18 AM 50.0 °F 50.0 °F 100% 30.03 in 0.2 mi Calm Calm - N/A Fog Fog
7:53 AM 53.6 °F 53.6 °F 100% 30.04 in 0.5 mi Calm Calm - N/A Fog Fog
7:58 AM 53.6 °F 53.6 °F 100% 30.04 in 0.8 mi Calm Calm - N/A   Clear
8:03 AM 53.6 °F 53.6 °F 100% 30.04 in 0.8 mi Calm Calm - N/A   Clear
8:13 AM 55.4 °F 55.4 °F 100% 30.04 in 1.2 mi Calm Calm - N/A   Clear
8:18 AM 55.4 °F 55.4 °F 100% 30.04 in 7.0 mi North 2.3 mph - N/A   Clear
8:55 AM 57.9 °F 57.9 °F 100% 30.06 in 10.0 mi NW 2.3 mph - N/A   Partly Cloudy
9:56 AM 60.8 °F 60.4 °F 99% 30.06 in 10.0 mi WSW 4.6 mph - N/A   Scattered Clouds
10:55 AM 67.1 °F 56.3 °F 68% 30.06 in 10.0 mi West 6.9 mph - N/A   Mostly Cloudy
11:55 AM 68.2 °F 56.7 °F 67% 30.05 in 10.0 mi WNW 8.1 mph - N/A   Mostly Cloudy
12:55 PM 68.7 °F 56.1 °F 64% 30.04 in 10.0 mi WNW 8.1 mph - N/A   Mostly Cloudy
1:30 PM 68.0 °F 55.4 °F 64% 30.03 in 10.0 mi West 8.1 mph - N/A   Mostly Cloudy
1:55 PM 68.9 °F 56.1 °F 64% 30.03 in 10.0 mi WNW 8.1 mph - N/A   Mostly Cloudy
2:55 PM 67.3 °F 56.5 °F 68% 30.04 in 10.0 mi NW 8.1 mph - N/A   Overcast
3:55 PM 68.0 °F 55.8 °F 65% 30.03 in 10.0 mi WNW 3.5 mph - N/A   Scattered Clouds
4:55 PM 68.2 °F 55.0 °F 63% 30.04 in 10.0 mi WNW 3.5 mph - N/A   Scattered Clouds
5:14 PM 66.2 °F 55.4 °F 68% 30.04 in 10.0 mi NW 3.5 mph - N/A   Scattered Clouds
5:55 PM 62.4 °F 54.7 °F 76% 30.06 in 10.0 mi Calm Calm - N/A   Scattered Clouds
6:55 PM 60.6 °F 51.6 °F 72% 30.09 in 10.0 mi NNE 4.6 mph - N/A   Partly Cloudy
7:55 PM 57.6 °F 51.8 °F 81% 30.12 in 10.0 mi North 5.8 mph - N/A   Partly Cloudy
8:55 PM 56.5 °F 52.7 °F 87% 30.14 in 10.0 mi North 6.9 mph - N/A   Scattered Clouds
9:55 PM 56.3 °F 52.0 °F 85% 30.15 in 10.0 mi North 8.1 mph - N/A   Scattered Clouds
10:12 PM 57.2 °F 51.8 °F 82% 30.14 in 10.0 mi North 10.4 mph - N/A   Mostly Cloudy
10:55 PM 56.5 °F 51.3 °F 83% 30.15 in 10.0 mi North 10.4 mph - N/A   Mostly Cloudy
11:53 PM 55.4 °F 48.2 °F 77% 30.15 in 10.0 mi NNE 9.2 mph - N/A   Overcast
11:55 PM 55.9 °F 48.9 °F 77% 30.15 in 10.0 mi NNE 9.2 mph - N/A   Overcast